Miscellaneous Local Product
Issued by NWS North Platte, NE

Home | Current Version | Previous Version | Text Only | Print | Product List | Glossary On
Versions: 1 2 3 4 5 6 7 8 9 10 11 12 13 14 15 16 17 18 19 20 21 22 23 24 25 26 27 28 29 30 31 32 33 34 35 36 37 38 39 40 41 42 43 44 45 46 47 48 49 50
000
AXUS43 KLBF 280710
MISLBF


WESTERN AND NORTH CENTRAL NEBRASKA HOURLY WEATHER ROUNDUP
NATIONAL WEATHER SERVICE NORTH PLATTE NE
200 AM CDT THU AUG 28 2014

***STATIONS NOT REPORTING VARIABLES SUCH AS SKY/WEATHER OR
PRESSURE ARE PROVIDED BY THE NEBRASKA DEPARTMENT OF
ROADS...RAWS...AND APRS NETWORKS...AND ARE NOT UNDER
NATIONAL WEATHER SERVICE QUALITY CONTROL***

...OBSERVATIONS IN AND NEAR THE EASTERN PANHANDLE OF NEBRASKA...

CITY           SKY/WX    TMP DP  RH WIND       PRES   REMARKS
PINE RIDGE     FOG       63  63 100 NW3       30.00F VSB 1
CHADRON        CLOUDY    64  62  93 CALM      30.01F
ALLIANCE       CLOUDY    62  61  96 W8        30.04F
SIDNEY         CLOUDY    63  61  93 SW7       30.09F
WHITECLAY        N/A     63  62  96 CALM        N/A
RUSHVILLE        N/A     64  62  94 NW13        N/A
GORDON           N/A     69  69  99 CALM        N/A
CRESCENT LAKE    N/A     62  60  95 SW5         N/A
LISCO            N/A     68  64  88 W3          N/A
BIG SPRINGS      N/A     62  61  96 E6          N/A
$$

...OBSERVATIONS IN NORTH CENTRAL NEBRASKA...

CITY           SKY/WX    TMP DP  RH WIND       PRES   REMARKS
VALENTINE      CLOUDY    68  67  96 E9        29.98F FOG
THEDFORD       CLOUDY    68  67  96 CALM      30.00S
AINSWORTH      CLOUDY    67  67 100 SE6       29.99F FOG
O`NEILL        CLOUDY    69  69  99 SE7       30.00F FOG
ORD            LGT RAIN  71  69  93 SE5       29.97F
BROKEN BOW     HVY RAIN  69  68  96 SE15G23   29.98F FOG
SPRINGVIEW       N/A     68  66  94 E3          N/A
ROSE             N/A     72  72  99 E8          N/A
NEWPORT          N/A     70  70  99 E3          N/A
SARGENT          N/A     68  67  98 CALM        N/A
COMSTOCK         N/A     76  75  99 SE9         N/A
CHAMBERS         N/A     69  68  96 E5          N/A
EWING            N/A     68  67  97 CALM        N/A
$$

...OBSERVATIONS IN SOUTHWEST NEBRASKA AND FAR NORTHEAST COLORADO...

CITY           SKY/WX    TMP DP  RH WIND       PRES   REMARKS
WRAY           LGT RAIN N/A N/A N/A NW12      30.07F
HOLYOKE        FAIR      63  61  94 SW8G18    30.10R
IMPERIAL       LGT RAIN  62  60  93 CALM      30.02S
OGALLALA       RAIN      60  59  98 E5        29.99F
NORTH PLATTE   TSTM      65  63  93 NW9       29.99S FOG
MCCOOK         LGT RAIN  63  62  97 CALM      30.00F FOG
LEXINGTON      CLOUDY    68  67  95 SE10      29.99S
PAXTON           N/A     62  60  93 CALM        N/A
SUTHERLAND       N/A     59  57  92 SE3         N/A
BRADY            N/A     66  64  94 CALM        N/A
GOTHENBURG       N/A     66  62  88 E8          N/A
CALLAWAY         N/A     67  66  98 SE8         N/A
$$

...SOME WEATHER OBSERVATIONS FROM AROUND THE REGION...

CITY           SKY/WX    TMP DP  RH WIND       PRES   REMARKS
DENVER         PTCLDY    54  52  93 SE7       30.17F
LARAMIE        MOCLDY    45  42  89 E6        30.27S
CHEYENNE       CLOUDY    53  46  77 N8        30.21R
SCOTTSBLUFF    CLOUDY    62  61  96 CALM      30.06F
RAPID CITY     CLOUDY    63  61  93 CALM      30.02F
PIERRE         RAIN      66  66 100 S5        29.97F FOG
WINNER         CLOUDY    68  67  96 E9        29.98F
SIOUX FALLS    CLOUDY    69  66  90 SE8       30.05F
OMAHA          LGT RAIN  72  68  87 SE9       30.03F
GRAND ISLAND   RAIN      71  68  90 S15       30.00F FOG
KANSAS CITY    CLOUDY    76  71  85 E10       30.00F
WICHITA        MOCLDY    79  64  60 S12       29.97F
HAYS           MOCLDY    72  64  78 E7        29.96F
LIBERAL        CLEAR     70  61  73 S10       30.00F
GOODLAND       LGT RAIN  61  60  97 N17       30.08R
$$



USA.gov is the U.S. government's official web portal to all federal, state and local government web resources and services.